Location: Kerentrech
(47.7567°N, 3.3595°W)
Time: 19:23:58
(UTC+00:00)

Cosmos 1633 - Pass Details

Date: 17 February 2020
Orbit: 463 x 482 km, 82.5° (Epoch: 07 April)

Event Time Altitude Azimuth Distance (km) Brightness Sun altitude
Rises 05:28:36 0° 355° (N) 2,559 6.2 -18.8°
Reaches altitude 10° 05:30:45 10° 1° (N) 1,675 5.3 -18.5°
Maximum altitude 05:34:19 49° 77° (ENE) 635 3.5 -17.9°
Drops below altitude 10° 05:37:52 10° 154° (SSE) 1,661 5.6 -17.3°
Sets 05:40:00 0° 160° (SSE) 2,535 6.5 -16.9°
